Weather History for Orange, MA

Change the Weather History Date:

Monday, October 7, 2013

  Actual Average Record
Temperature  
Mean Temperature 63 °F -  
Max Temperature 75 °F 61 °F 75 °F (2005)
Min Temperature 53 °F 37 °F 26 °F (1999)
Degree Days  
Heating Degree Days 2    
Growing Degree Days 13 (Base 50)    
Moisture  
Dew Point 59 °F    
Average Humidity 91    
Maximum Humidity 100    
Minimum Humidity 71    
Precipitation  
Precipitation 1.10 in - - ()
Sea Level Pressure  
Sea Level Pressure 29.92 in    
Wind  
Wind Speed 4 mph (SSW)    
Max Wind Speed 25 mph    
Max Gust Speed 38 mph    
Visibility 6 miles    
Events Rain    
Averages and records for this station are not official NWS values.
T = Trace of Precipitation, MM = Missing Value Source: NWS Daily Summary

Daily Weather History Graph

Daily Weather History Graph

Search for Another Location

Airport:

Trip Planner

Search our weather history database for the weather conditions in past years. The results will help you decide how hot, cold, wet, or windy it might be!

Date:

Astronomy

Oct. 07, 2013 Rise Set
Actual Time 6:53 AM EDT 6:19 PM EDT
Civil Twilight 6:25 AM EDT 6:47 PM EDT
Nautical Twilight 5:52 AM EDT 7:20 PM EDT
Astronomical Twilight 5:19 AM EDT 7:53 PM EDT
Moon 9:44 AM EDT (10/7) 7:58 PM EDT (10/7)
Length of Visible Light 12h 22m
Length of Day
11h 26m
Waxing Crescent, 8% of the Moon is Illuminated
Oct 7
Waxing Crescent
Oct 11
First Quarter
Oct 18
Full
Oct 26
Last Quarter
Nov 3
New

Hourly Weather History & Observations

Time (EDT) Temp. Dew Point Humidity Pressure Visibility Wind Dir Wind Speed Gust Speed Precip Events Conditions
12:27 AM 53.6 °F 53.6 °F 100% 30.11 in 6.0 mi Calm Calm - N/A   Overcast
12:52 AM 54.0 °F 53.1 °F 97% 30.12 in 9.0 mi Calm Calm - N/A   Overcast
1:52 AM 54.0 °F 54.0 °F 100% 30.10 in 10.0 mi Calm Calm - 0.00 in   Overcast
2:52 AM 55.0 °F 54.0 °F 96% 30.08 in 10.0 mi Calm Calm - N/A   Overcast
3:29 AM 55.4 °F 53.6 °F 94% 30.06 in 8.0 mi Calm Calm - N/A   Overcast
3:52 AM 55.0 °F 54.0 °F 96% 30.06 in 6.0 mi Calm Calm - 0.01 in   Overcast
4:06 AM 55.4 °F 53.6 °F 94% 30.04 in 2.5 mi Calm Calm - N/A   Overcast
4:31 AM 55.4 °F 53.6 °F 94% 30.04 in 1.8 mi Calm Calm - N/A   Overcast
4:52 AM 55.0 °F 54.0 °F 96% 30.04 in 1.8 mi Calm Calm - N/A   Overcast
5:10 AM 55.4 °F 55.4 °F 100% 30.03 in 2.5 mi Calm Calm - N/A   Overcast
5:19 AM 55.4 °F 53.6 °F 94% 30.03 in 4.0 mi Calm Calm - N/A   Overcast
5:52 AM 55.0 °F 55.0 °F 100% 30.04 in 2.5 mi Calm Calm - N/A   Overcast
6:07 AM 55.4 °F 53.6 °F 94% 30.03 in 1.5 mi Calm Calm - N/A   Overcast
6:14 AM 55.4 °F 55.4 °F 100% 30.03 in 1.2 mi Calm Calm - N/A   Overcast
6:25 AM 55.4 °F 55.4 °F 100% 30.02 in 1.5 mi Calm Calm - N/A   Overcast
6:52 AM 55.0 °F 55.0 °F 100% 30.02 in 1.8 mi Calm Calm - N/A   Overcast
7:15 AM 55.4 °F 55.4 °F 100% 30.01 in 2.0 mi Calm Calm - N/A   Overcast
7:27 AM 55.4 °F 55.4 °F 100% 30.01 in 4.0 mi Calm Calm - N/A   Overcast
7:52 AM 55.9 °F 55.0 °F 97% 30.02 in 7.0 mi Calm Calm - N/A   Overcast
8:39 AM 57.2 °F 57.2 °F 100% 29.99 in 2.0 mi Calm Calm - N/A   Overcast
8:50 AM 57.2 °F 57.2 °F 100% 29.99 in 6.0 mi Calm Calm - N/A   Overcast
8:52 AM 57.9 °F 57.0 °F 97% 29.99 in 7.0 mi Calm Calm - N/A   Overcast
9:52 AM 61.0 °F 60.1 °F 97% 29.96 in 7.0 mi Calm Calm - N/A   Overcast
10:18 AM 64.4 °F 62.6 °F 94% 29.95 in 7.0 mi South 4.6 mph - N/A   Overcast
10:52 AM 66.9 °F 64.9 °F 93% 29.94 in 10.0 mi South 6.9 mph - N/A   Overcast
11:12 AM 68.0 °F 64.4 °F 88% 29.92 in 10.0 mi South 8.1 mph - N/A   Overcast
11:52 AM 71.1 °F 66.0 °F 84% 29.90 in 10.0 mi SSE 9.2 mph - N/A   Overcast
12:52 PM 73.9 °F 64.9 °F 73% 29.86 in 10.0 mi South 13.8 mph 21.9 mph N/A   Mostly Cloudy
1:25 PM 73.4 °F 64.4 °F 73% 29.82 in 10.0 mi South 13.8 mph 24.2 mph N/A   Overcast
1:33 PM 73.4 °F 64.4 °F 73% 29.82 in 10.0 mi South 12.7 mph 27.6 mph N/A   Overcast
1:52 PM 73.9 °F 64.0 °F 71% 29.81 in 10.0 mi South 11.5 mph 27.6 mph N/A   Mostly Cloudy
2:52 PM 73.9 °F 64.9 °F 73% 29.78 in 10.0 mi South 19.6 mph 29.9 mph 0.00 in   Overcast
3:52 PM 73.9 °F 64.0 °F 71% 29.77 in 10.0 mi South 20.7 mph 38.0 mph N/A   Mostly Cloudy
4:52 PM 72.0 °F 64.9 °F 78% 29.77 in 7.0 mi South 17.3 mph 26.5 mph 0.02 in Rain Light Rain
5:06 PM 69.8 °F 66.2 °F 88% 29.77 in 1.8 mi South 15.0 mph 29.9 mph 0.09 in Rain Rain
5:13 PM 69.8 °F 66.2 °F 88% 29.78 in 2.0 mi SSW 18.4 mph 27.6 mph 0.14 in Rain Rain
5:28 PM 69.8 °F 66.2 °F 88% 29.78 in 10.0 mi South 15.0 mph 23.0 mph 0.16 in Rain Light Rain
5:45 PM 66.2 °F 62.6 °F 88% 29.80 in 1.8 mi SW 25.3 mph 33.4 mph 0.35 in Rain Heavy Rain
5:48 PM 64.4 °F 62.6 °F 94% 29.80 in 1.0 mi SW 20.7 mph 33.4 mph 0.56 in Rain Heavy Rain
5:50 PM 64.4 °F 62.6 °F 94% 29.79 in 0.8 mi SW 18.4 mph 33.4 mph 0.67 in Rain Heavy Rain
5:52 PM 64.9 °F 62.1 °F 90% 29.80 in 0.8 mi WSW 16.1 mph 33.4 mph 0.74 in Rain Heavy Rain
6:00 PM 66.2 °F 62.6 °F 88% 29.79 in 1.2 mi SW 15.0 mph - 0.17 in Rain Heavy Rain
6:04 PM 66.2 °F 62.6 °F 88% 29.79 in 2.0 mi SW 11.5 mph 21.9 mph 0.18 in Rain Rain
6:12 PM 66.2 °F 62.6 °F 88% 29.79 in 3.0 mi SW 9.2 mph 17.3 mph 0.23 in Rain Heavy Rain
6:21 PM 66.2 °F 64.4 °F 94% 29.80 in 3.0 mi WSW 5.8 mph - 0.26 in Rain Rain
6:52 PM 66.9 °F 64.0 °F 90% 29.81 in 10.0 mi South 8.1 mph - 0.30 in Rain Light Rain
7:17 PM 66.2 °F 64.4 °F 94% 29.81 in 4.0 mi Variable 3.5 mph - 0.02 in Rain Rain
7:35 PM 66.2 °F 62.6 °F 88% 29.83 in 10.0 mi SW 12.7 mph - 0.02 in   Overcast
7:52 PM 64.0 °F 61.0 °F 90% 29.86 in 7.0 mi WNW 17.3 mph 24.2 mph 0.03 in Rain Light Rain
8:33 PM 59.0 °F 53.6 °F 82% 29.88 in 10.0 mi WNW 8.1 mph - 0.00 in   Overcast
8:52 PM 57.9 °F 53.1 °F 84% 29.88 in 10.0 mi Variable 6.9 mph - 0.00 in   Overcast
9:52 PM 57.9 °F 52.0 °F 81% 29.91 in 10.0 mi Calm Calm - 0.00 in   Overcast
10:52 PM 55.9 °F 54.0 °F 93% 29.93 in 10.0 mi South 4.6 mph - N/A   Overcast
11:52 PM 54.0 °F 53.1 °F 97% 29.93 in 10.0 mi Calm Calm - N/A   Clear